| time (UTC) | temp F | wind direction | speed MPH | gust MPH | rain 1hr in | rain 24hr in | rain mn in | humidity % | barometer mb |
| 20260905152003 | 55 | 264 | 6.0 | 14.0 | 0.00 | 0.18 | 0.00 | 86 | 1020.2 |
| 20260905151503 | 55 | 258 | 6.0 | 14.0 | 0.00 | 0.18 | 0.00 | 86 | 1020.2 |
| 20260905151003 | 55 | 253 | 6.0 | 11.0 | 0.00 | 0.18 | 0.00 | 86 | 1020.0 |
| 20260905150504 | 55 | 251 | 6.0 | 13.0 | 0.00 | 0.18 | 0.00 | 86 | 1020.1 |
| 20260905150003 | 55 | 248 | 6.0 | 13.0 | 0.00 | 0.18 | 0.00 | 86 | 1020.1 |
| 20260905145504 | 55 | 251 | 7.0 | 13.0 | 0.00 | 0.18 | 0.00 | 86 | 1019.9 |
| 20260905145003 | 55 | 248 | 7.0 | 13.0 | 0.00 | 0.18 | 0.00 | 85 | 1020.0 |
| 20260905144503 | 55 | 247 | 7.0 | 13.0 | 0.00 | 0.18 | 0.00 | 85 | 1020.0 |
| 20260905144003 | 55 | 261 | 6.0 | 13.0 | 0.00 | 0.18 | 0.00 | 85 | 1019.9 |
| 20260905143525 | 55 | 269 | 6.0 | 10.0 | 0.00 | 0.18 | 0.00 | 84 | 1020.0 |
| 20260905143006 | 55 | 259 | 6.0 | 10.0 | 0.00 | 0.18 | 0.00 | 84 | 1019.9 |
| 20260905142525 | 55 | 259 | 6.0 | 9.0 | 0.00 | 0.18 | 0.18 | 84 | 1020.0 |
| 20260905142024 | 55 | 254 | 6.0 | 10.0 | 0.00 | 0.18 | 0.18 | 84 | 1020.0 |
| 20260905141503 | 55 | 257 | 6.0 | 13.0 | 0.00 | 0.18 | 0.18 | 84 | 1020.0 |
| 20260905141004 | 55 | 257 | 6.0 | 13.0 | 0.00 | 0.18 | 0.18 | 84 | 1020.0 |
| 20260905140504 | 55 | 248 | 6.0 | 11.0 | 0.00 | 0.18 | 0.18 | 84 | 1020.0 |
| 20260905140004 | 55 | 256 | 6.0 | 11.0 | 0.00 | 0.18 | 0.18 | 84 | 1020.0 |
| 20260905135504 | 55 | 266 | 6.0 | 11.0 | 0.00 | 0.18 | 0.18 | 83 | 1020.1 |
| 20260905135004 | 55 | 262 | 7.0 | 10.0 | 0.00 | 0.18 | 0.18 | 83 | 1020.0 |
| 20260905134504 | 55 | 261 | 8.0 | 11.0 | 0.00 | 0.18 | 0.18 | 83 | 1020.0 |
| 20260905134004 | 55 | 262 | 8.0 | 11.0 | 0.00 | 0.18 | 0.18 | 82 | 1020.0 |
| 20260905133504 | 55 | 262 | 8.0 | 11.0 | 0.00 | 0.18 | 0.18 | 82 | 1020.0 |
| 20260905133025 | 55 | 263 | 8.0 | 11.0 | 0.00 | 0.18 | 0.18 | 82 | 1020.0 |
| 20260905132504 | 56 | 262 | 8.0 | 11.0 | 0.00 | 0.18 | 0.18 | 82 | 1020.0 |
| 20260905132004 | 56 | 257 | 8.0 | 13.0 | 0.00 | 0.18 | 0.18 | 82 | 1019.9 |
| 20260905131504 | 56 | 257 | 9.0 | 14.0 | 0.00 | 0.18 | 0.18 | 81 | 1019.9 |
| 20260905131004 | 56 | 256 | 9.0 | 18.0 | 0.00 | 0.18 | 0.18 | 81 | 1019.9 |
| 20260905130504 | 56 | 255 | 9.0 | 18.0 | 0.00 | 0.18 | 0.18 | 81 | 1019.8 |
| 20260905130004 | 56 | 254 | 10.0 | 15.0 | 0.00 | 0.18 | 0.18 | 81 | 1019.6 |
| 20260905125504 | 56 | 251 | 10.0 | 17.0 | 0.00 | 0.18 | 0.18 | 81 | 1019.7 |
| 20260905125004 | 56 | 255 | 10.0 | 17.0 | 0.00 | 0.18 | 0.18 | 81 | 1019.7 |
| 20260905124504 | 56 | 259 | 9.0 | 18.0 | 0.00 | 0.18 | 0.18 | 80 | 1019.7 |
| 20260905124004 | 56 | 259 | 8.0 | 18.0 | 0.00 | 0.18 | 0.18 | 80 | 1019.6 |
| 20260905123504 | 56 | 255 | 8.0 | 15.0 | 0.00 | 0.18 | 0.18 | 80 | 1019.6 |
| 20260905123004 | 56 | 252 | 9.0 | 15.0 | 0.00 | 0.18 | 0.18 | 80 | 1019.5 |
| 20260905122504 | 56 | 253 | 9.0 | 15.0 | 0.00 | 0.18 | 0.18 | 80 | 1019.4 |
| 20260905122004 | 56 | 250 | 10.0 | 18.0 | 0.00 | 0.18 | 0.18 | 80 | 1019.4 |
| 20260905121525 | 56 | 240 | 11.0 | 18.0 | 0.00 | 0.18 | 0.18 | 80 | 1019.3 |
| 20260905121004 | 56 | 241 | 11.0 | 19.0 | 0.00 | 0.19 | 0.18 | 80 | 1019.3 |
| 20260905120504 | 56 | 249 | 10.0 | 23.0 | 0.00 | 0.19 | 0.18 | 80 | 1019.2 |
| 20260905120004 | 56 | 247 | 11.0 | 23.0 | 0.00 | 0.19 | 0.18 | 81 | 1019.1 |
| 20260905115504 | 56 | 246 | 11.0 | 18.0 | 0.00 | 0.19 | 0.18 | 81 | 1019.0 |
| 20260905115004 | 56 | 254 | 10.0 | 25.0 | 0.00 | 0.19 | 0.18 | 81 | 1019.0 |
| 20260905114504 | 56 | 257 | 9.0 | 25.0 | 0.00 | 0.19 | 0.18 | 80 | 1019.0 |
| 20260905114004 | 56 | 253 | 8.0 | 19.0 | 0.00 | 0.19 | 0.18 | 79 | 1019.0 |
| 20260905113525 | 56 | 251 | 8.0 | 14.0 | 0.01 | 0.19 | 0.18 | 79 | 1018.9 |
| 20260905113004 | 56 | 251 | 9.0 | 13.0 | 0.01 | 0.19 | 0.18 | 79 | 1018.8 |
| 20260905112504 | 56 | 250 | 9.0 | 17.0 | 0.01 | 0.19 | 0.18 | 80 | 1018.7 |
| 20260905112025 | 56 | 248 | 9.0 | 17.0 | 0.01 | 0.19 | 0.18 | 80 | 1018.7 |
| 20260905111504 | 56 | 245 | 9.0 | 14.0 | 0.01 | 0.19 | 0.18 | 80 | 1018.7 |
| 20260905111004 | 56 | 245 | 10.0 | 15.0 | 0.01 | 0.19 | 0.18 | 80 | 1018.6 |
| 20260905110525 | 56 | 243 | 10.0 | 19.0 | 0.01 | 0.19 | 0.18 | 80 | 1018.6 |
| 20260905110004 | 56 | 245 | 9.0 | 19.0 | 0.01 | 0.19 | 0.18 | 80 | 1018.5 |
| 20260905105504 | 56 | 241 | 8.0 | 17.0 | 0.01 | 0.19 | 0.18 | 80 | 1018.5 |
| 20260905105025 | 56 | 239 | 9.0 | 17.0 | 0.01 | 0.19 | 0.18 | 80 | 1018.4 |
| 20260905104504 | 56 | 241 | 11.0 | 20.0 | 0.01 | 0.19 | 0.18 | 80 | 1018.4 |
| 20260905104004 | 56 | 242 | 11.0 | 20.0 | 0.01 | 0.19 | 0.18 | 79 | 1018.3 |
| 20260905103504 | 56 | 242 | 10.0 | 20.0 | 0.00 | 0.18 | 0.17 | 78 | 1018.3 |
| 20260905103025 | 57 | 246 | 9.0 | 20.0 | 0.00 | 0.18 | 0.17 | 77 | 1018.3 |
| 20260905102504 | 57 | 254 | 9.0 | 17.0 | 0.00 | 0.18 | 0.17 | 75 | 1018.1 |
| 20260905102004 | 57 | 250 | 8.0 | 19.0 | 0.00 | 0.18 | 0.17 | 75 | 1018.0 |
| 20260905101504 | 57 | 252 | 7.0 | 19.0 | 0.00 | 0.18 | 0.17 | 75 | 1017.9 |
| 20260905101025 | 57 | 257 | 7.0 | 10.0 | 0.00 | 0.18 | 0.17 | 76 | 1017.9 |
| 20260905100525 | 57 | 248 | 8.0 | 14.0 | 0.00 | 0.18 | 0.17 | 75 | 1017.9 |
| 20260905100004 | 57 | 243 | 9.0 | 14.0 | 0.00 | 0.18 | 0.17 | 75 | 1017.8 |
| 20260905095504 | 57 | 243 | 9.0 | 17.0 | 0.00 | 0.18 | 0.17 | 74 | 1017.7 |
| 20260905095004 | 57 | 247 | 9.0 | 17.0 | 0.00 | 0.18 | 0.17 | 74 | 1017.7 |
| 20260905094504 | 57 | 248 | 9.0 | 17.0 | 0.00 | 0.18 | 0.17 | 73 | 1017.5 |
| 20260905094025 | 57 | 243 | 10.0 | 17.0 | 0.00 | 0.18 | 0.17 | 73 | 1017.4 |
| 20260905093525 | 57 | 243 | 12.0 | 18.0 | 0.00 | 0.18 | 0.17 | 73 | 1017.3 |
| 20260905093004 | 57 | 245 | 14.0 | 23.0 | 0.00 | 0.18 | 0.17 | 72 | 1017.2 |
| 20260905092504 | 57 | 245 | 13.0 | 25.0 | 0.00 | 0.18 | 0.17 | 72 | 1017.1 |
| 20260905092004 | 58 | 243 | 13.0 | 27.0 | 0.00 | 0.18 | 0.17 | 72 | 1017.0 |
| 20260905091504 | 58 | 246 | 14.0 | 27.0 | 0.00 | 0.18 | 0.17 | 71 | 1016.9 |
| 20260905091003 | 58 | 249 | 15.0 | 27.0 | 0.00 | 0.18 | 0.17 | 71 | 1016.9 |
| 20260905090504 | 58 | 246 | 14.0 | 25.0 | 0.00 | 0.18 | 0.17 | 70 | 1016.8 |
| 20260905090004 | 58 | 243 | 13.0 | 27.0 | 0.00 | 0.18 | 0.17 | 70 | 1016.8 |
| 20260905085504 | 58 | 243 | 13.0 | 27.0 | 0.00 | 0.18 | 0.17 | 70 | 1016.8 |
| 20260905085004 | 58 | 243 | 12.0 | 27.0 | 0.00 | 0.18 | 0.17 | 70 | 1016.6 |
| 20260905084504 | 58 | 245 | 12.0 | 27.0 | 0.00 | 0.18 | 0.17 | 69 | 1016.6 |
| 20260905084004 | 58 | 249 | 12.0 | 25.0 | 0.00 | 0.18 | 0.17 | 68 | 1016.5 |
| 20260905083525 | 58 | 251 | 13.0 | 25.0 | 0.00 | 0.18 | 0.17 | 68 | 1016.5 |
| 20260905083003 | 58 | 253 | 14.0 | 20.0 | 0.00 | 0.18 | 0.17 | 68 | 1016.4 |
| 20260905082504 | 58 | 253 | 13.0 | 25.0 | 0.00 | 0.18 | 0.17 | 70 | 1016.3 |
| 20260905082003 | 58 | 255 | 12.0 | 27.0 | 0.00 | 0.18 | 0.17 | 70 | 1016.2 |
| 20260905081503 | 58 | 260 | 13.0 | 27.0 | 0.00 | 0.18 | 0.17 | 70 | 1016.2 |
| 20260905081004 | 58 | 258 | 15.0 | 25.0 | 0.00 | 0.18 | 0.17 | 70 | 1016.0 |
| 20260905080503 | 58 | 245 | 15.0 | 27.0 | 0.00 | 0.18 | 0.17 | 70 | 1015.8 |
| 20260905080004 | 58 | 247 | 14.0 | 27.0 | 0.00 | 0.18 | 0.17 | 70 | 1015.6 |
| 20260905075504 | 59 | 254 | 15.0 | 28.0 | 0.00 | 0.18 | 0.17 | 69 | 1015.4 |
| 20260905075004 | 59 | 253 | 16.0 | 28.0 | 0.00 | 0.18 | 0.17 | 67 | 1015.4 |
| 20260905074503 | 59 | 254 | 17.0 | 30.0 | 0.00 | 0.18 | 0.17 | 67 | 1015.2 |
| 20260905074003 | 59 | 252 | 18.0 | 30.0 | 0.00 | 0.18 | 0.17 | 67 | 1015.0 |
| 20260905073504 | 59 | 251 | 18.0 | 29.0 | 0.00 | 0.18 | 0.17 | 69 | 1015.0 |
| 20260905073004 | 60 | 253 | 20.0 | 36.0 | 0.00 | 0.18 | 0.17 | 68 | 1015.0 |
| 20260905072503 | 60 | 252 | 21.0 | 36.0 | 0.00 | 0.18 | 0.17 | 69 | 1014.9 |
| 20260905072003 | 60 | 253 | 20.0 | 38.0 | 0.00 | 0.18 | 0.17 | 68 | 1015.1 |
| 20260905071524 | 60 | 251 | 20.0 | 38.0 | 0.00 | 0.18 | 0.17 | 67 | 1014.9 |
| 20260905071004 | 61 | 242 | 21.0 | 36.0 | 0.00 | 0.18 | 0.17 | 66 | 1014.7 |
| 20260905070503 | 61 | 245 | 21.0 | 38.0 | 0.00 | 0.18 | 0.17 | 66 | 1014.6 |
| 20260905070004 | 60 | 253 | 21.0 | 38.0 | 0.00 | 0.18 | 0.17 | 66 | 1014.5 |
| 20260905065503 | 60 | 252 | 20.0 | 38.0 | 0.00 | 0.18 | 0.17 | 65 | 1014.5 |
| 20260905065004 | 60 | 246 | 20.0 | 38.0 | 0.00 | 0.18 | 0.17 | 65 | 1014.5 |
| 20260905064503 | 60 | 252 | 22.0 | 38.0 | 0.00 | 0.18 | 0.17 | 66 | 1014.4 |
| 20260905064004 | 60 | 257 | 23.0 | 42.0 | 0.00 | 0.18 | 0.17 | 66 | 1014.2 |
| 20260905063503 | 60 | 252 | 22.0 | 42.0 | 0.00 | 0.18 | 0.17 | 65 | 1014.3 |
| 20260905063004 | 60 | 250 | 22.0 | 41.0 | 0.00 | 0.18 | 0.17 | 63 | 1014.1 |
| 20260905062504 | 61 | 253 | 22.0 | 38.0 | 0.00 | 0.18 | 0.17 | 64 | 1014.2 |
| 20260905062004 | 60 | 252 | 23.0 | 38.0 | 0.00 | 0.18 | 0.17 | 65 | 1014.1 |
| 20260905061504 | 60 | 254 | 24.0 | 39.0 | 0.00 | 0.18 | 0.17 | 67 | 1014.0 |
| 20260905061025 | 61 | 260 | 24.0 | 39.0 | 0.00 | 0.18 | 0.17 | 67 | 1014.0 |
| 20260905060503 | 60 | 262 | 23.0 | 38.0 | 0.00 | 0.18 | 0.17 | 67 | 1014.0 |
| 20260905060025 | 60 | 258 | 22.0 | 37.0 | 0.00 | 0.18 | 0.17 | 66 | 1014.0 |
| 20260905055503 | 60 | 257 | 23.0 | 43.0 | 0.00 | 0.18 | 0.17 | 65 | 1014.0 |
| 20260905055003 | 61 | 261 | 25.0 | 44.0 | 0.00 | 0.18 | 0.17 | 66 | 1013.9 |
| 20260905054525 | 61 | 261 | 25.0 | 44.0 | 0.00 | 0.18 | 0.17 | 63 | 1013.9 |
| 20260905054003 | 61 | 259 | 26.0 | 41.0 | 0.00 | 0.18 | 0.17 | 64 | 1013.8 |
| 20260905053504 | 61 | 259 | 26.0 | 41.0 | 0.00 | 0.18 | 0.17 | 65 | 1013.8 |
| 20260905053004 | 61 | 259 | 26.0 | 44.0 | 0.00 | 0.18 | 0.17 | 65 | 1013.6 |
| 20260905052504 | 61 | 252 | 25.0 | 44.0 | 0.00 | 0.18 | 0.17 | 64 | 1013.7 |
| 20260905052003 | 61 | 253 | 25.0 | 41.0 | 0.00 | 0.18 | 0.17 | 65 | 1013.4 |
| 20260905051503 | 60 | 263 | 26.0 | 39.0 | 0.00 | 0.18 | 0.17 | 65 | 1013.5 |
| 20260905051004 | 60 | 260 | 27.0 | 44.0 | 0.00 | 0.18 | 0.17 | 65 | 1013.4 |
| 20260905050503 | 60 | 257 | 25.0 | 44.0 | 0.00 | 0.18 | 0.17 | 65 | 1013.3 |
| 20260905050004 | 61 | 255 | 24.0 | 42.0 | 0.00 | 0.18 | 0.17 | 63 | 1013.3 |
| 20260905045503 | 61 | 254 | 24.0 | 43.0 | 0.00 | 0.18 | 0.17 | 63 | 1013.2 |
| 20260905045003 | 62 | 263 | 24.0 | 43.0 | 0.00 | 0.18 | 0.17 | 64 | 1013.1 |
| 20260905044504 | 61 | 269 | 22.0 | 42.0 | 0.00 | 0.18 | 0.17 | 64 | 1013.2 |
| 20260905044003 | 61 | 271 | 22.0 | 42.0 | 0.00 | 0.18 | 0.17 | 64 | 1013.1 |
| 20260905043504 | 61 | 266 | 23.0 | 39.0 | 0.00 | 0.18 | 0.17 | 65 | 1013.1 |
| 20260905043004 | 61 | 264 | 22.0 | 39.0 | 0.00 | 0.18 | 0.17 | 63 | 1013.2 |
| 20260905042525 | 61 | 260 | 24.0 | 38.0 | 0.00 | 0.18 | 0.17 | 60 | 1013.2 |
| 20260905042004 | 61 | 265 | 25.0 | 41.0 | 0.00 | 0.18 | 0.17 | 60 | 1013.0 |
| 20260905041503 | 60 | 268 | 23.0 | 41.0 | 0.00 | 0.18 | 0.17 | 63 | 1013.1 |
| 20260905041024 | 61 | 267 | 22.0 | 38.0 | 0.00 | 0.18 | 0.17 | 62 | 1013.0 |
| 20260905040503 | 61 | 261 | 22.0 | 34.0 | 0.00 | 0.18 | 0.17 | 67 | 1013.0 |
| 20260905040004 | 60 | 262 | 21.0 | 38.0 | 0.00 | 0.18 | 0.17 | 68 | 1013.0 |
| 20260905035504 | 61 | 269 | 21.0 | 38.0 | 0.00 | 0.18 | 0.17 | 68 | 1013.0 |
| 20260905035003 | 61 | 263 | 23.0 | 34.0 | 0.00 | 0.18 | 0.17 | 67 | 1013.1 |
| 20260905034504 | 60 | 260 | 24.0 | 37.0 | 0.00 | 0.18 | 0.17 | 66 | 1013.2 |
| 20260905034003 | 60 | 262 | 23.0 | 37.0 | 0.00 | 0.18 | 0.17 | 65 | 1013.1 |
| 20260905033524 | 60 | 266 | 21.0 | 38.0 | 0.00 | 0.18 | 0.17 | 65 | 1013.2 |
| 20260905033003 | 60 | 268 | 21.0 | 38.0 | 0.00 | 0.18 | 0.17 | 67 | 1013.2 |
| 20260905032503 | 60 | 267 | 21.0 | 36.0 | 0.00 | 0.18 | 0.17 | 66 | 1013.2 |
| 20260905032003 | 60 | 271 | 22.0 | 36.0 | 0.00 | 0.18 | 0.17 | 68 | 1013.3 |
| 20260905031524 | 60 | 273 | 23.0 | 44.0 | 0.00 | 0.18 | 0.17 | 67 | 1013.2 |
| 20260905031003 | 61 | 275 | 23.0 | 44.0 | 0.00 | 0.18 | 0.17 | 67 | 1013.2 |
| 20260905030503 | 61 | 270 | 22.0 | 39.0 | 0.00 | 0.18 | 0.17 | 67 | 1013.2 |
| 20260905030003 | 60 | 270 | 20.0 | 39.0 | 0.00 | 0.18 | 0.17 | 65 | 1013.3 |
| 20260905025503 | 60 | 274 | 19.0 | 39.0 | 0.00 | 0.18 | 0.17 | 67 | 1013.1 |
| 20260905025003 | 60 | 274 | 19.0 | 37.0 | 0.00 | 0.18 | 0.17 | 70 | 1013.2 |
| 20260905024503 | 60 | 272 | 18.0 | 37.0 | 0.00 | 0.18 | 0.17 | 70 | 1013.2 |
| 20260905024004 | 59 | 270 | 18.0 | 33.0 | 0.00 | 0.18 | 0.17 | 71 | 1013.2 |
| 20260905023503 | 59 | 267 | 20.0 | 33.0 | 0.00 | 0.18 | 0.17 | 71 | 1013.3 |
| 20260905023003 | 59 | 268 | 20.0 | 37.0 | 0.00 | 0.18 | 0.17 | 69 | 1013.3 |
| 20260905022504 | 60 | 276 | 18.0 | 37.0 | 0.00 | 0.18 | 0.17 | 68 | 1013.3 |
| 20260905022024 | 60 | 280 | 18.0 | 32.0 | 0.00 | 0.18 | 0.17 | 69 | 1013.4 |
| 20260905021503 | 59 | 277 | 18.0 | 27.0 | 0.00 | 0.18 | 0.17 | 72 | 1013.3 |
| 20260905021004 | 59 | 274 | 19.0 | 32.0 | 0.00 | 0.18 | 0.17 | 72 | 1013.2 |
| 20260905020503 | 59 | 279 | 18.0 | 33.0 | 0.00 | 0.18 | 0.17 | 72 | 1013.1 |
| 20260905020003 | 59 | 272 | 18.0 | 33.0 | 0.00 | 0.19 | 0.17 | 72 | 1013.2 |
| 20260905015503 | 59 | 261 | 18.0 | 33.0 | 0.00 | 0.21 | 0.17 | 73 | 1013.2 |
| 20260905015003 | 58 | 260 | 18.0 | 33.0 | 0.00 | 0.23 | 0.17 | 72 | 1013.2 |
| 20260905014504 | 58 | 254 | 19.0 | 37.0 | 0.00 | 0.25 | 0.17 | 73 | 1013.1 |
| 20260905014003 | 58 | 260 | 20.0 | 37.0 | 0.00 | 0.26 | 0.17 | 72 | 1013.2 |
| 20260905013504 | 59 | 266 | 18.0 | 36.0 | 0.00 | 0.26 | 0.17 | 71 | 1013.0 |
| 20260905013003 | 59 | 266 | 16.0 | 37.0 | 0.02 | 0.26 | 0.17 | 72 | 1013.1 |
| 20260905012503 | 58 | 261 | 15.0 | 37.0 | 0.05 | 0.26 | 0.17 | 77 | 1013.0 |
| 20260905012004 | 57 | 261 | 15.0 | 27.0 | 0.05 | 0.26 | 0.17 | 78 | 1012.9 |
| 20260905011503 | 57 | 267 | 15.0 | 29.0 | 0.05 | 0.26 | 0.17 | 81 | 1012.8 |
| 20260905011003 | 56 | 265 | 14.0 | 30.0 | 0.05 | 0.26 | 0.17 | 82 | 1012.6 |
| 20260905010503 | 56 | 262 | 14.0 | 30.0 | 0.05 | 0.27 | 0.17 | 83 | 1012.5 |
| 20260905010004 | 56 | 255 | 14.0 | 29.0 | 0.05 | 0.27 | 0.17 | 85 | 1012.4 |
| 20260905005503 | 56 | 252 | 14.0 | 23.0 | 0.05 | 0.27 | 0.17 | 86 | 1012.3 |
| 20260905005003 | 56 | 256 | 15.0 | 27.0 | 0.06 | 0.27 | 0.17 | 88 | 1012.3 |
| 20260905004503 | 56 | 265 | 18.0 | 27.0 | 0.13 | 0.27 | 0.17 | 89 | 1012.3 |
| 20260905004004 | 56 | 274 | 20.0 | 39.0 | 0.17 | 0.27 | 0.17 | 88 | 1012.2 |
| 20260905003504 | 55 | 265 | 20.0 | 41.0 | 0.17 | 0.27 | 0.17 | 87 | 1012.1 |
| 20260905003004 | 55 | 261 | 16.0 | 43.0 | 0.15 | 0.24 | 0.15 | 86 | 1012.0 |
| 20260905002504 | 56 | 268 | 14.0 | 43.0 | 0.13 | 0.22 | 0.13 | 87 | 1011.9 |
| 20260905002004 | 55 | 270 | 14.0 | 27.0 | 0.13 | 0.22 | 0.13 | 88 | 1011.8 |
| 20260905001525 | 55 | 273 | 14.0 | 27.0 | 0.13 | 0.22 | 0.13 | 88 | 1011.8 |
| 20260905001004 | 54 | 275 | 14.0 | 27.0 | 0.13 | 0.22 | 0.13 | 88 | 1011.7 |
| 20260905000504 | 54 | 274 | 15.0 | 27.0 | 0.13 | 0.22 | 0.13 | 88 | 1011.7 |
| 20260905000004 | 54 | 272 | 17.0 | 29.0 | 0.13 | 0.22 | 0.13 | 87 | 1011.7 |
| 20260904235504 | 55 | 266 | 17.0 | 34.0 | 0.13 | 0.22 | 0.13 | 86 | 1011.8 |
| 20260904235004 | 56 | 261 | 17.0 | 34.0 | 0.11 | 0.20 | 0.11 | 84 | 1011.7 |
| 20260904234525 | 58 | 278 | 17.0 | 28.0 | 0.05 | 0.14 | 0.06 | 81 | 1011.7 |
| 20260904234025 | 58 | 298 | 17.0 | 28.0 | 0.00 | 0.09 | 0.00 | 78 | 1010.7 |
| 20260904233504 | 58 | 301 | 17.0 | 27.0 | 0.00 | 0.09 | 0.00 | 78 | 1010.7 |
| 20260904233004 | 58 | 299 | 17.0 | 29.0 | 0.00 | 0.09 | 0.00 | 78 | 1010.8 |
| 20260904232504 | 59 | 299 | 16.0 | 32.0 | 0.00 | 0.09 | 0.00 | 77 | 1010.8 |
| 20260904232004 | 59 | 301 | 15.0 | 32.0 | 0.00 | 0.09 | 0.00 | 77 | 1010.9 |
| 20260904231504 | 59 | 299 | 13.0 | 25.0 | 0.00 | 0.09 | 0.00 | 78 | 1010.9 |
| 20260904231004 | 58 | 299 | 12.0 | 25.0 | 0.00 | 0.09 | 0.00 | 78 | 1011.0 |
| 20260904230504 | 58 | 302 | 12.0 | 20.0 | 0.00 | 0.09 | 0.00 | 79 | 1011.0 |
| 20260904230004 | 58 | 301 | 13.0 | 20.0 | 0.00 | 0.09 | 0.00 | 79 | 1010.8 |
| 20260904225504 | 58 | 304 | 12.0 | 20.0 | 0.00 | 0.09 | 0.00 | 79 | 1010.9 |
| 20260904225004 | 58 | 308 | 12.0 | 20.0 | 0.00 | 0.09 | 0.00 | 79 | 1010.8 |
| 20260904224504 | 58 | 305 | 11.0 | 20.0 | 0.00 | 0.09 | 0.00 | 79 | 1010.8 |
| 20260904224004 | 58 | 300 | 12.0 | 20.0 | 0.00 | 0.09 | 0.00 | 79 | 1010.9 |
| 20260904223525 | 58 | 300 | 12.0 | 20.0 | 0.00 | 0.09 | 0.00 | 78 | 1010.8 |
| 20260904223004 | 58 | 297 | 11.0 | 20.0 | 0.00 | 0.09 | 0.00 | 78 | 1010.8 |
| 20260904222525 | 58 | 297 | 11.0 | 20.0 | 0.00 | 0.09 | 0.00 | 77 | 1010.8 |
| 20260904222004 | 58 | 292 | 11.0 | 18.0 | 0.00 | 0.09 | 0.00 | 76 | 1010.8 |
| 20260904221504 | 58 | 286 | 12.0 | 20.0 | 0.00 | 0.09 | 0.00 | 76 | 1010.8 |
| 20260904221004 | 58 | 287 | 13.0 | 20.0 | 0.00 | 0.09 | 0.00 | 76 | 1010.7 |
| 20260904220504 | 57 | 291 | 12.0 | 20.0 | 0.00 | 0.09 | 0.00 | 77 | 1010.5 |
| 20260904220004 | 57 | 292 | 12.0 | 19.0 | 0.00 | 0.09 | 0.00 | 77 | 1010.6 |
| 20260904215504 | 57 | 291 | 11.0 | 18.0 | 0.00 | 0.09 | 0.00 | 77 | 1010.6 |
| 20260904215004 | 57 | 290 | 11.0 | 19.0 | 0.00 | 0.09 | 0.00 | 77 | 1010.6 |
| 20260904214504 | 57 | 288 | 11.0 | 19.0 | 0.00 | 0.09 | 0.00 | 77 | 1010.6 |
| 20260904214025 | 57 | 286 | 11.0 | 19.0 | 0.00 | 0.09 | 0.00 | 77 | 1010.5 |
| 20260904213504 | 57 | 285 | 11.0 | 19.0 | 0.00 | 0.09 | 0.00 | 77 | 1010.5 |
| 20260904213004 | 57 | 283 | 12.0 | 23.0 | 0.00 | 0.09 | 0.00 | 76 | 1010.4 |
| 20260904212504 | 57 | 281 | 13.0 | 23.0 | 0.00 | 0.09 | 0.00 | 76 | 1010.3 |
| 20260904212004 | 57 | 276 | 14.0 | 24.0 | 0.00 | 0.10 | 0.00 | 76 | 1010.3 |
| 20260904211504 | 57 | 273 | 15.0 | 24.0 | 0.00 | 0.10 | 0.00 | 75 | 1010.3 |
| 20260904211004 | 57 | 273 | 16.0 | 29.0 | 0.00 | 0.10 | 0.00 | 74 | 1010.1 |
| 20260904210504 | 58 | 271 | 16.0 | 29.0 | 0.00 | 0.10 | 0.00 | 74 | 1010.1 |
| 20260904210004 | 58 | 272 | 15.0 | 28.0 | 0.00 | 0.10 | 0.00 | 75 | 1010.0 |
| 20260904205504 | 58 | 271 | 15.0 | 25.0 | 0.00 | 0.10 | 0.00 | 75 | 1010.0 |
| 20260904205004 | 58 | 270 | 16.0 | 27.0 | 0.00 | 0.10 | 0.00 | 75 | 1010.0 |
| 20260904204504 | 58 | 274 | 17.0 | 29.0 | 0.00 | 0.10 | 0.00 | 75 | 1009.8 |
| 20260904204025 | 58 | 280 | 17.0 | 29.0 | 0.00 | 0.10 | 0.00 | 74 | 1009.8 |
| 20260904203504 | 58 | 280 | 18.0 | 36.0 | 0.00 | 0.10 | 0.00 | 74 | 1009.8 |
| 20260904203004 | 59 | 278 | 18.0 | 36.0 | 0.00 | 0.10 | 0.00 | 75 | 1009.7 |
| 20260904202504 | 59 | 279 | 17.0 | 30.0 | 0.00 | 0.10 | 0.00 | 77 | 1009.5 |
| 20260904202004 | 59 | 280 | 15.0 | 29.0 | 0.00 | 0.10 | 0.00 | 78 | 1009.5 |
| 20260904201504 | 59 | 282 | 14.0 | 29.0 | 0.00 | 0.10 | 0.00 | 79 | 1009.4 |
| 20260904201024 | 59 | 286 | 14.0 | 25.0 | 0.00 | 0.10 | 0.00 | 80 | 1009.2 |
| 20260904200503 | 59 | 290 | 14.0 | 24.0 | 0.00 | 0.10 | 0.00 | 80 | 1009.3 |
| 20260904200004 | 59 | 291 | 13.0 | 24.0 | 0.00 | 0.10 | 0.00 | 80 | 1009.2 |
| 20260904195503 | 59 | 298 | 13.0 | 24.0 | 0.00 | 0.10 | 0.00 | 80 | 1009.1 |
| 20260904195025 | 59 | 299 | 13.0 | 24.0 | 0.00 | 0.10 | 0.00 | 80 | 1009.1 |
| 20260904194504 | 59 | 295 | 13.0 | 24.0 | 0.00 | 0.10 | 0.00 | 80 | 1009.1 |
| 20260904194003 | 59 | 293 | 13.0 | 20.0 | 0.00 | 0.10 | 0.00 | 81 | 1008.9 |
| 20260904193525 | 59 | 296 | 13.0 | 20.0 | 0.00 | 0.10 | 0.00 | 81 | 1008.8 |
| 20260904193004 | 59 | 299 | 12.0 | 20.0 | 0.00 | 0.10 | 0.00 | 82 | 1008.8 |
| 20260904192524 | 59 | 303 | 11.0 | 24.0 | 0.00 | 0.10 | 0.00 | 82 | 1008.7 |
| 20260904192004 | 59 | 305 | 10.0 | 24.0 | 0.00 | 0.10 | 0.00 | 83 | 1008.8 |
| 20260904191525 | 59 | 307 | 10.0 | 17.0 | 0.00 | 0.10 | 0.00 | 84 | 1008.9 |
| 20260904191003 | 59 | 312 | 10.0 | 17.0 | 0.00 | 0.10 | 0.00 | 84 | 1008.8 |
| 20260904190504 | 59 | 314 | 10.0 | 17.0 | 0.00 | 0.10 | 0.00 | 84 | 1008.8 |
| 20260904190004 | 59 | 314 | 10.0 | 17.0 | 0.00 | 0.10 | 0.00 | 84 | 1008.6 |
| 20260904185504 | 59 | 310 | 10.0 | 15.0 | 0.00 | 0.10 | 0.00 | 83 | 1008.6 |
| 20260904185003 | 59 | 312 | 10.0 | 17.0 | 0.00 | 0.10 | 0.00 | 84 | 1008.5 |
| 20260904184504 | 59 | 317 | 10.0 | 17.0 | 0.00 | 0.10 | 0.00 | 84 | 1008.3 |
| 20260904184004 | 59 | 318 | 10.0 | 17.0 | 0.00 | 0.10 | 0.00 | 84 | 1008.3 |
| 20260904183525 | 59 | 317 | 9.0 | 17.0 | 0.00 | 0.10 | 0.00 | 84 | 1008.5 |
| 20260904183004 | 59 | 316 | 9.0 | 15.0 | 0.00 | 0.10 | 0.00 | 83 | 1008.5 |
| 20260904182503 | 59 | 319 | 8.0 | 15.0 | 0.00 | 0.10 | 0.00 | 83 | 1008.5 |
| 20260904182003 | 59 | 324 | 8.0 | 14.0 | 0.00 | 0.10 | 0.00 | 83 | 1008.3 |
| 20260904181503 | 59 | 322 | 8.0 | 13.0 | 0.00 | 0.10 | 0.00 | 83 | 1008.4 |
| 20260904181004 | 59 | 322 | 9.0 | 15.0 | 0.00 | 0.10 | 0.00 | 83 | 1008.2 |
| 20260904180524 | 59 | 325 | 9.0 | 15.0 | 0.00 | 0.10 | 0.00 | 83 | 1008.2 |
| 20260904180025 | 59 | 326 | 9.0 | 15.0 | 0.00 | 0.10 | 0.00 | 83 | 1008.4 |
| 20260904175504 | 59 | 327 | 9.0 | 15.0 | 0.00 | 0.10 | 0.00 | 83 | 1008.3 |
| 20260904175004 | 60 | 327 | 9.0 | 15.0 | 0.00 | 0.10 | 0.00 | 82 | 1008.2 |
| 20260904174503 | 60 | 326 | 9.0 | 14.0 | 0.00 | 0.10 | 0.00 | 82 | 1008.2 |
| 20260904174025 | 60 | 327 | 9.0 | 15.0 | 0.00 | 0.10 | 0.00 | 82 | 1008.4 |
| 20260904173503 | 60 | 332 | 8.0 | 15.0 | 0.00 | 0.10 | 0.00 | 82 | 1008.4 |
| 20260904173024 | 60 | 337 | 8.0 | 15.0 | 0.00 | 0.10 | 0.00 | 82 | 1008.2 |
| 20260904172525 | 60 | 338 | 8.0 | 13.0 | 0.00 | 0.10 | 0.00 | 82 | 1008.1 |
| 20260904172004 | 60 | 336 | 8.0 | 14.0 | 0.00 | 0.10 | 0.00 | 82 | 1008.2 |
| 20260904171504 | 60 | 341 | 8.0 | 14.0 | 0.00 | 0.10 | 0.00 | 82 | 1008.2 |
| 20260904171003 | 60 | 343 | 8.0 | 13.0 | 0.00 | 0.10 | 0.00 | 82 | 1008.2 |
| 20260904170504 | 60 | 343 | 7.0 | 13.0 | 0.00 | 0.10 | 0.00 | 82 | 1008.2 |
| 20260904170004 | 60 | 340 | 7.0 | 13.0 | 0.00 | 0.10 | 0.00 | 81 | 1008.2 |
| 20260904165503 | 60 | 331 | 6.0 | 11.0 | 0.00 | 0.10 | 0.00 | 82 | 1008.2 |
| 20260904165024 | 60 | 326 | 6.0 | 11.0 | 0.00 | 0.10 | 0.00 | 82 | 1008.2 |
| 20260904164525 | 60 | 328 | 6.0 | 11.0 | 0.00 | 0.10 | 0.00 | 82 | 1008.3 |
| 20260904164003 | 60 | 332 | 5.0 | 11.0 | 0.00 | 0.10 | 0.00 | 82 | 1008.3 |
| 20260904163503 | 60 | 342 | 6.0 | 14.0 | 0.00 | 0.10 | 0.00 | 81 | 1008.3 |
| 20260904163003 | 60 | 355 | 7.0 | 14.0 | 0.00 | 0.10 | 0.00 | 82 | 1008.2 |
| 20260904162503 | 60 | 359 | 7.0 | 11.0 | 0.00 | 0.10 | 0.00 | 81 | 1008.2 |
| 20260904162004 | 60 | 353 | 7.0 | 13.0 | 0.00 | 0.10 | 0.00 | 81 | 1008.5 |
| 20260904161504 | 60 | 348 | 7.0 | 13.0 | 0.00 | 0.10 | 0.00 | 81 | 1008.3 |
| 20260904161025 | 60 | 349 | 7.0 | 11.0 | 0.00 | 0.10 | 0.00 | 80 | 1008.4 |
| 20260904160525 | 60 | 348 | 8.0 | 14.0 | 0.00 | 0.10 | 0.00 | 80 | 1008.5 |
| 20260904160004 | 61 | 349 | 8.0 | 14.0 | 0.00 | 0.10 | 0.00 | 80 | 1008.6 |
| 20260904155503 | 61 | 354 | 7.0 | 11.0 | 0.00 | 0.10 | 0.00 | 79 | 1008.6 |
| 20260904155003 | 61 | 352 | 7.0 | 14.0 | 0.00 | 0.10 | 0.00 | 79 | 1008.4 |
| 20260904154525 | 61 | 344 | 6.0 | 14.0 | 0.00 | 0.10 | 0.00 | 78 | 1008.3 |
| 20260904154025 | 61 | 344 | 6.0 | 11.0 | 0.00 | 0.10 | 0.00 | 77 | 1008.2 |
| 20260904153524 | 62 | 345 | 6.0 | 11.0 | 0.00 | 0.10 | 0.00 | 77 | 1008.2 |
| 20260904153024 | 62 | 335 | 6.0 | 11.0 | 0.00 | 0.10 | 0.00 | 76 | 1008.1 |
| 20260904152503 | 62 | 316 | 7.0 | 10.0 | 0.00 | 0.10 | 0.00 | 75 | 1008.2 |